M I D A S
Marine Information and Data Acquisition System
Tripno 1859 of the Zeeleeuw from 2010-04-12 07:55:30 to 2010-04-12 13:48:43
Back to CruiseResearch ActivitiesStationsMapUnderway DataData graphs

EquipmentUnitsComments
TimeDGPSUTC
LatitudeDGPSDM.mWGS84
LongitudeDGPSDM.mWGS84
SpeedMeteo Stationm/sRelative wind speed
DirectionMeteo StationdegRelative wind direction
TemperatureMeteo Stationdeg CelciusAir temperature
PressureMeteo StationPaAtmospheric pressure
HumidityMeteo Station%Relative humidity
Missing or incorrect values are displayed as -999
Metereological data collected by the RV Zeeleeuw from 2010-04-12 07:55:59 to 2010-04-12 13:50:35
Time Latitude Longitude Speed Direction Temperature Pressure Humidity
2010-04-12 07:57 51°13.675 2°55.894 4.1 263 8.2 102470 38
2010-04-12 07:58 51°13.687 2°55.798 6.5 251 8.2 102480 37
2010-04-12 07:59 51°13.691 2°55.772 6.5 32 8.2 102470 39
2010-04-12 08:00 51°13.684 2°55.76 5.6 321 8.2 102460 38
2010-04-12 08:01 51°13.701 2°55.775 3.4 350 8.2 102460 39
2010-04-12 08:02 51°13.713 2°55.75 7 358 8.2 102450 36
2010-04-12 08:03 51°13.788 2°55.664 6.8 345 8 102450 35
2010-04-12 08:04 51°13.899 2°55.574 7.1 340 7.9 102440 37
2010-04-12 08:05 51°14.037 2°55.475 9.5 348 7.9 102440 36
2010-04-12 08:06 51°14.194 2°55.365 9.6 347 7.8 102450 38
2010-04-12 08:07 51°14.36 2°55.197 10.8 350 7.7 102410 37
2010-04-12 08:08 51°14.532 2°54.993 12.1 353 7.7 102410 38
2010-04-12 08:09 51°14.697 2°54.768 12.5 351 7.6 102410 37
2010-04-12 08:10 51°14.872 2°54.574 10.6 353 7.6 102420 37
2010-04-12 08:11 51°15.039 2°54.351 15 353 7.6 102390 36
2010-04-12 08:12 51°15.207 2°54.145 11.7 352 7.6 102420 37
2010-04-12 08:13 51°15.378 2°53.926 12.2 349 7.6 102430 38
2010-04-12 08:14 51°15.546 2°53.709 13.2 350 7.6 102430 36
2010-04-12 08:15 51°15.723 2°53.521 12.3 350 7.6 102410 38
2010-04-12 08:16 51°15.906 2°53.355 12.8 348 7.6 102430 38
2010-04-12 08:17 51°16.092 2°53.198 11.7 350 7.6 102410 37
2010-04-12 08:18 51°16.282 2°53.056 13.8 347 7.6 102430 37
2010-04-12 08:19 51°16.482 2°52.968 14 342 7.7 102410 37
2010-04-12 08:20 51°16.683 2°52.88 12.1 345 7.7 102410 38
2010-04-12 08:21 51°16.88 2°52.785 12.3 347 7.7 102420 38
2010-04-12 08:22 51°17.076 2°52.687 14.2 345 7.7 102410 36
2010-04-12 08:23 51°17.272 2°52.59 13.2 344 7.7 102410 37
2010-04-12 08:24 51°17.473 2°52.534 15.6 340 7.7 102410 37
2010-04-12 08:25 51°17.678 2°52.521 12.6 339 7.7 102420 38
2010-04-12 08:26 51°17.881 2°52.545 13 337 7.7 102440 37
2010-04-12 08:27 51°18.071 2°52.624 11.4 330 7.8 102430 37
2010-04-12 08:28 51°18.203 2°52.859 16.5 321 7.8 102420 37
2010-04-12 08:29 51°18.282 2°53.168 13.3 318 7.8 102430 37
2010-04-12 08:30 51°18.364 2°53.469 12.8 321 7.9 102420 38
2010-04-12 08:31 51°18.447 2°53.77 14.4 320 7.9 102420 36
2010-04-12 08:32 51°18.529 2°54.067 15.5 320 7.9 102420 37
2010-04-12 08:33 51°18.611 2°54.367 14.5 319 7.9 102430 37
2010-04-12 08:34 51°18.693 2°54.675 12.6 319 7.9 102420 36
2010-04-12 08:35 51°18.777 2°54.977 15.1 317 8 102430 37
2010-04-12 08:36 51°18.858 2°55.279 13.6 320 8 102420 37
2010-04-12 08:37 51°18.942 2°55.579 12.3 320 8 102420 36
2010-04-12 08:38 51°19.026 2°55.882 15.3 317 8 102390 37
2010-04-12 08:39 51°19.109 2°56.185 14.5 317 8 102420 36
2010-04-12 08:40 51°19.197 2°56.483 13.8 322 8 102420 37
2010-04-12 08:41 51°19.298 2°56.77 12.2 320 8 102420 36
2010-04-12 08:42 51°19.4 2°57.055 12.8 321 8 102410 36
2010-04-12 08:43 51°19.503 2°57.343 12.5 320 7.9 102420 35
2010-04-12 08:44 51°19.605 2°57.627 14.2 321 8 102410 37
2010-04-12 08:45 51°19.71 2°57.914 12.9 318 7.9 102420 37
2010-04-12 08:46 51°19.771 2°58.093 9.4 320 7.9 102400 37
2010-04-12 08:47 51°19.78 2°58.16 10.1 237 7.9 102420 36
2010-04-12 08:48 51°19.759 2°58.171 12.3 248 8 102420 36
2010-04-12 08:49 51°19.735 2°58.172 12.1 252 8 102440 36
2010-04-12 08:50 51°19.711 2°58.166 9.7 255 8.1 102450 36
2010-04-12 08:51 51°19.686 2°58.156 9.9 257 8 102450 36
2010-04-12 08:52 51°19.662 2°58.147 9.8 258 8 102450 35
2010-04-12 08:53 51°19.633 2°58.157 9.1 20 8 102440 36
2010-04-12 08:54 51°19.634 2°58.249 11.8 325 8 102420 37
2010-04-12 08:55 51°19.696 2°58.4 14.3 322 8 102420 36
2010-04-12 08:56 51°19.778 2°58.636 17 324 8 102400 37
2010-04-12 08:57 51°19.878 2°58.934 13.8 322 8 102400 37
2010-04-12 08:58 51°19.966 2°59.248 13.7 321 8 102390 36
2010-04-12 08:59 51°20.048 2°59.574 14.2 318 8 102390 35
2010-04-12 09:00 51°20.126 2°59.895 13.3 319 8 102400 35
2010-04-12 09:01 51°20.204 3°0.209 15.3 321 8 102380 36
2010-04-12 09:02 51°20.284 3°0.531 15.4 321 8 102390 36
2010-04-12 09:03 51°20.365 3°0.853 14 320 8 102390 36
2010-04-12 09:04 51°20.448 3°1.173 13.4 320 8 102380 37
2010-04-12 09:05 51°20.531 3°1.501 15.7 322 8 102370 36
2010-04-12 09:06 51°20.613 3°1.818 14.2 318 8 102390 37
2010-04-12 09:07 51°20.698 3°2.148 15.7 320 8 102380 35
2010-04-12 09:08 51°20.781 3°2.467 12.5 321 8 102380 36
2010-04-12 09:09 51°20.865 3°2.792 14.8 320 8 102380 37
2010-04-12 09:10 51°20.951 3°3.119 16.2 318 8 102380 37
2010-04-12 09:11 51°21.035 3°3.447 12.9 319 8 102380 36
2010-04-12 09:12 51°21.121 3°3.773 13.7 319 8 102380 36
2010-04-12 09:13 51°21.208 3°4.098 14.5 322 8 102370 36
2010-04-12 09:14 51°21.294 3°4.428 15.5 319 8 102360 36
2010-04-12 09:15 51°21.376 3°4.751 14.6 317 8 102330 35
2010-04-12 09:16 51°21.449 3°5.093 14.8 316 7.9 102350 36
2010-04-12 09:17 51°21.518 3°5.427 14.1 316 8 102360 37
2010-04-12 09:18 51°21.589 3°5.767 14.5 317 7.9 102340 36
2010-04-12 09:19 51°21.661 3°6.114 14.4 319 8 102350 36
2010-04-12 09:20 51°21.731 3°6.448 14.3 319 8 102350 37
2010-04-12 09:21 51°21.8 3°6.788 14.8 318 8 102360 37
2010-04-12 09:22 51°21.869 3°7.13 17.6 315 8 102340 37
2010-04-12 09:23 51°21.939 3°7.478 14.8 316 8 102350 35
2010-04-12 09:24 51°22.022 3°7.797 15.6 322 8 102350 37
2010-04-12 09:25 51°22.137 3°8.097 13.5 323 8 102360 36
2010-04-12 09:26 51°22.252 3°8.391 13.3 321 8 102370 37
2010-04-12 09:27 51°22.329 3°8.606 13.5 320 7.9 102360 37
2010-04-12 09:28 51°22.392 3°8.796 12.7 319 7.9 102370 37
2010-04-12 09:29 51°22.458 3°9.026 13 322 8 102390 37
2010-04-12 09:30 51°22.508 3°9.338 13.4 20 7.9 102370 36
2010-04-12 09:31 51°22.539 3°9.678 13.5 25 7.9 102380 35
2010-04-12 09:32 51°22.574 3°10.038 14.5 19 7.9 102370 37
2010-04-12 09:33 51°22.623 3°10.394 17.8 315 7.9 102360 36
2010-04-12 09:34 51°22.687 3°10.748 16.2 317 7.9 102370 36
2010-04-12 09:35 51°22.768 3°10.907 14.1 329 7.9 102400 37
2010-04-12 09:36 51°22.824 3°10.978 11.2 341 7.9 102400 36
2010-04-12 09:37 51°22.843 3°10.984 10.4 3 7.9 102390 36
2010-04-12 09:38 51°22.834 3°10.978 10.4 20 7.8 102400 38
2010-04-12 09:39 51°22.82 3°10.978 9.4 30 7.7 102380 36
2010-04-12 09:40 51°22.805 3°10.985 7.4 25 7.8 102390 36
2010-04-12 09:41 51°22.788 3°10.994 8.3 26 7.8 102380 36
2010-04-12 09:42 51°22.77 3°11.005 8.4 25 7.8 102380 37
2010-04-12 09:43 51°22.759 3°10.999 10.6 12 7.8 102380 38
2010-04-12 09:44 51°22.805 3°10.975 11.6 339 7.8 102380 38
2010-04-12 09:45 51°22.899 3°11.002 10.4 340 7.8 102390 37
2010-04-12 09:46 51°22.961 3°11.021 9.1 339 7.8 102390 37
2010-04-12 09:47 51°22.995 3°11.041 8.4 340 7.8 102390 37
2010-04-12 09:48 51°23.021 3°11.058 10.7 343 7.8 102390 38
2010-04-12 09:49 51°23.049 3°11.074 9.3 342 7.7 102400 36
2010-04-12 09:50 51°23.097 3°11.099 9.8 340 7.7 102380 36
2010-04-12 09:51 51°23.163 3°11.115 10.6 342 7.7 102370 37
2010-04-12 09:52 51°23.246 3°11.123 10.8 346 7.7 102380 37
2010-04-12 09:53 51°23.34 3°11.134 10.5 345 7.7 102370 37
2010-04-12 09:54 51°23.43 3°11.147 11.3 344 7.7 102380 37
2010-04-12 09:55 51°23.498 3°11.164 11.4 345 7.7 102380 35
2010-04-12 09:56 51°23.56 3°11.171 9.1 355 7.7 102380 37
2010-04-12 09:57 51°23.674 3°11.128 10 352 7.7 102370 36
2010-04-12 09:58 51°23.814 3°11.078 12.9 353 7.6 102360 36
2010-04-12 09:59 51°23.971 3°11.027 11 350 7.6 102360 37
2010-04-12 10:00 51°24.128 3°11.015 13.3 346 7.6 102370 37
2010-04-12 10:01 51°24.292 3°11.055 14.5 343 7.6 102370 37
2010-04-12 10:02 51°24.444 3°11.064 11.8 349 7.6 102370 38
2010-04-12 10:03 51°24.551 3°11.019 10.5 353 7.6 102380 35
2010-04-12 10:04 51°24.602 3°11.001 8.7 1 7.6 102380 36
2010-04-12 10:05 51°24.632 3°10.983 11.9 11 7.6 102390 37
2010-04-12 10:06 51°24.643 3°10.94 11.7 21 7.6 102380 36
2010-04-12 10:07 51°24.65 3°10.893 10.7 20 7.6 102380 36
2010-04-12 10:08 51°24.658 3°10.843 10.4 19 7.7 102380 36
2010-04-12 10:09 51°24.667 3°10.792 8.8 18 7.7 102390 37
2010-04-12 10:10 51°24.677 3°10.74 7.8 20 7.7 102390 38
2010-04-12 10:11 51°24.684 3°10.69 8.7 19 7.7 102390 35
2010-04-12 10:12 51°24.69 3°10.635 8.3 22 7.7 102380 36
2010-04-12 10:13 51°24.698 3°10.583 8.4 21 7.7 102380 37
2010-04-12 10:14 51°24.703 3°10.531 8.5 22 7.7 102390 36
2010-04-12 10:15 51°24.703 3°10.478 9 22 7.7 102390 36
2010-04-12 10:16 51°24.705 3°10.425 9.1 24 7.7 102390 35
2010-04-12 10:17 51°24.706 3°10.369 9.6 24 7.7 102370 36
2010-04-12 10:18 51°24.706 3°10.316 7.4 29 7.7 102380 37
2010-04-12 10:19 51°24.705 3°10.266 9.4 25 7.7 102380 37
2010-04-12 10:20 51°24.707 3°10.216 9.2 23 7.7 102380 37
2010-04-12 10:21 51°24.709 3°10.162 8.3 18 7.7 102370 38
2010-04-12 10:22 51°24.711 3°10.11 9.1 20 7.7 102380 38
2010-04-12 10:23 51°24.71 3°10.056 7.8 25 7.7 102380 38
2010-04-12 10:24 51°24.71 3°10.003 8.7 26 7.6 102370 37
2010-04-12 10:25 51°24.71 3°9.949 8.7 23 7.7 102360 38
2010-04-12 10:26 51°24.709 3°9.896 8.8 18 7.7 102370 36
2010-04-12 10:27 51°24.708 3°9.844 7.8 24 7.7 102370 35
2010-04-12 10:28 51°24.706 3°9.792 7.6 24 7.7 102360 36
2010-04-12 10:29 51°24.712 3°9.743 9.4 9 7.7 102350 36
2010-04-12 10:30 51°24.768 3°9.753 13.2 334 7.6 102340 36
2010-04-12 10:31 51°24.875 3°9.884 10.9 320 7.7 102340 37
2010-04-12 10:32 51°24.866 3°10.04 5.5 263 7.7 102360 36
2010-04-12 10:33 51°24.789 3°10.103 8.8 26 7.8 102380 37
2010-04-12 10:34 51°24.724 3°10.105 6.7 24 7.7 102390 37
2010-04-12 10:35 51°24.676 3°10.064 7.7 35 7.7 102390 36
2010-04-12 10:36 51°24.652 3°10.011 10.4 32 7.8 102380 38
2010-04-12 10:37 51°24.642 3°9.914 10.1 16 7.7 102370 37
2010-04-12 10:38 51°24.679 3°9.777 7.9 5 7.7 102380 37
2010-04-12 10:39 51°24.714 3°9.738 8.2 3 7.7 102370 37
2010-04-12 10:40 51°24.753 3°9.713 9.4 357 7.6 102360 38
2010-04-12 10:41 51°24.812 3°9.699 11.7 347 7.6 102330 37
2010-04-12 10:42 51°24.878 3°9.722 10.8 346 7.6 102330 36
2010-04-12 10:43 51°24.928 3°9.75 10.9 336 7.6 102340 36
2010-04-12 10:44 51°24.968 3°9.82 9.1 325 7.7 102360 37
2010-04-12 10:45 51°24.996 3°9.92 10.4 320 7.8 102340 37
2010-04-12 10:46 51°25.017 3°10.024 9.7 18 7.9 102340 37
2010-04-12 10:47 51°25.032 3°10.129 10.7 315 7.9 102330 37
2010-04-12 10:48 51°25.043 3°10.226 10.2 23 7.9 102340 37
2010-04-12 10:49 51°25.059 3°10.319 10.3 317 8 102350 36
2010-04-12 10:50 51°25.085 3°10.409 12.4 324 8 102340 37
2010-04-12 10:51 51°25.108 3°10.497 12.1 321 8 102340 36
2010-04-12 10:52 51°25.13 3°10.588 10 322 8 102350 37
2010-04-12 10:53 51°25.153 3°10.684 11.4 318 8 102350 38
2010-04-12 10:54 51°25.173 3°10.781 9.6 34 8 102330 36
2010-04-12 10:55 51°25.191 3°10.884 10.7 39 8 102330 36
2010-04-12 10:56 51°25.203 3°10.978 10.2 319 8 102330 37
2010-04-12 10:57 51°25.218 3°11.076 12.5 316 8 102330 36
2010-04-12 10:58 51°25.234 3°11.168 11.3 319 8 102330 37
2010-04-12 10:59 51°25.253 3°11.262 13.4 317 8 102340 36
2010-04-12 11:00 51°25.268 3°11.358 11.3 315 8 102340 36
2010-04-12 11:01 51°25.284 3°11.454 12.5 320 8 102320 37
2010-04-12 11:02 51°25.305 3°11.542 12.5 322 8 102330 36
2010-04-12 11:03 51°25.332 3°11.615 13.4 327 8 102350 37
2010-04-12 11:04 51°25.372 3°11.69 10.4 325 8 102340 37
2010-04-12 11:05 51°25.409 3°11.784 11.4 319 8.1 102330 36
2010-04-12 11:06 51°25.425 3°11.902 11.9 30 8 102300 37
2010-04-12 11:07 51°25.429 3°12.018 11.5 36 8 102320 37
2010-04-12 11:08 51°25.432 3°12.12 12.1 36 8 102310 37
2010-04-12 11:09 51°25.439 3°12.215 11.9 37 8 102320 37
2010-04-12 11:10 51°25.446 3°12.305 10.5 32 7.9 102310 36
2010-04-12 11:11 51°25.454 3°12.397 12.1 36 7.9 102330 36
2010-04-12 11:12 51°25.464 3°12.488 12.3 40 7.9 102320 36
2010-04-12 11:13 51°25.473 3°12.579 11.8 316 7.9 102310 37
2010-04-12 11:14 51°25.487 3°12.671 12.8 315 7.9 102320 37
2010-04-12 11:15 51°25.497 3°12.762 11.2 31 7.9 102310 35
2010-04-12 11:16 51°25.509 3°12.85 11.1 36 7.9 102310 37
2010-04-12 11:17 51°25.521 3°12.944 13.6 35 7.9 102300 38
2010-04-12 11:18 51°25.521 3°13.042 12 241 7.9 102300 37
2010-04-12 11:19 51°25.512 3°13.149 12.3 245 7.9 102310 37
2010-04-12 11:20 51°25.498 3°13.259 11.3 249 8 102320 38
2010-04-12 11:21 51°25.485 3°13.367 13.1 247 8 102320 38
2010-04-12 11:22 51°25.465 3°13.477 12.6 255 8.1 102310 37
2010-04-12 11:23 51°25.43 3°13.574 7.8 265 8 102320 37
2010-04-12 11:24 51°25.371 3°13.64 7.8 38 8 102330 38
2010-04-12 11:25 51°25.306 3°13.675 6.8 37 7.9 102340 38
2010-04-12 11:26 51°25.252 3°13.675 8.6 33 8 102350 38
2010-04-12 11:27 51°25.214 3°13.646 8.5 36 7.9 102350 38
2010-04-12 11:28 51°25.193 3°13.605 6.9 30 7.8 102360 37
2010-04-12 11:29 51°25.182 3°13.553 8.1 23 7.8 102340 37
2010-04-12 11:30 51°25.185 3°13.498 9 13 7.8 102340 38
2010-04-12 11:31 51°25.193 3°13.464 9.5 12 7.7 102340 37
2010-04-12 11:32 51°25.206 3°13.422 8.3 6 7.7 102340 38
2010-04-12 11:33 51°25.244 3°13.313 9.2 7 7.7 102320 37
2010-04-12 11:34 51°25.265 3°13.248 9.7 8 7.7 102360 37
2010-04-12 11:35 51°25.269 3°13.224 10.1 10 7.6 102320 37
2010-04-12 11:36 51°25.267 3°13.219 8.5 13 7.6 102330 37
2010-04-12 11:37 51°25.259 3°13.225 8.6 19 7.7 102330 37
2010-04-12 11:38 51°25.247 3°13.237 8 16 7.7 102330 37
2010-04-12 11:39 51°25.233 3°13.253 8.6 18 7.6 102310 36
2010-04-12 11:40 51°25.221 3°13.256 9.6 24 7.7 102300 38
2010-04-12 11:41 51°25.215 3°13.143 9.4 22 7.6 102310 39
2010-04-12 11:42 51°25.19 3°12.974 7.7 30 7.6 102310 38
2010-04-12 11:43 51°25.114 3°12.82 5.4 37 7.6 102330 37
2010-04-12 11:44 51°25.025 3°12.672 7.3 34 7.7 102320 37
2010-04-12 11:45 51°24.937 3°12.527 8.4 36 7.6 102320 38
2010-04-12 11:46 51°24.846 3°12.382 7.6 32 7.7 102320 38
2010-04-12 11:47 51°24.744 3°12.233 6.5 43 7.7 102310 37
2010-04-12 11:48 51°24.586 3°12.139 4.8 32 7.6 102330 39
2010-04-12 11:49 51°24.416 3°12.072 4.6 32 7.9 102330 40
2010-04-12 11:50 51°24.247 3°12.004 3.1 38 8 102320 40
2010-04-12 11:51 51°24.077 3°11.926 6.7 38 8 102320 39
2010-04-12 11:52 51°23.922 3°11.821 4.8 42 7.9 102320 38
2010-04-12 11:53 51°23.79 3°11.661 5.5 35 7.8 102310 37
2010-04-12 11:54 51°23.684 3°11.474 8.1 30 7.8 102300 37
2010-04-12 11:55 51°23.574 3°11.285 7.4 36 7.8 102300 39
2010-04-12 11:56 51°23.465 3°11.093 6.6 38 7.8 102300 37
2010-04-12 11:57 51°23.356 3°10.899 7.1 33 7.8 102300 38
2010-04-12 11:58 51°23.244 3°10.713 7.7 34 7.7 102300 39
2010-04-12 11:59 51°23.133 3°10.519 8.9 35 7.8 102300 38
2010-04-12 12:00 51°23.02 3°10.331 7.8 39 7.8 102300 37
2010-04-12 12:01 51°22.914 3°10.131 7.6 34 7.8 102300 37
2010-04-12 12:02 51°22.832 3°9.903 9.1 29 7.8 102300 37
2010-04-12 12:03 51°22.759 3°9.669 8.7 29 7.8 102290 37
2010-04-12 12:04 51°22.686 3°9.436 7.1 23 7.8 102290 39
2010-04-12 12:05 51°22.615 3°9.209 7.3 28 7.8 102290 39
2010-04-12 12:06 51°22.542 3°8.98 8.4 23 7.8 102290 37
2010-04-12 12:07 51°22.47 3°8.75 8 24 7.8 102290 38
2010-04-12 12:08 51°22.398 3°8.518 7.8 31 7.9 102290 39
2010-04-12 12:09 51°22.326 3°8.288 5.9 18 7.9 102280 39
2010-04-12 12:10 51°22.254 3°8.061 9.3 26 7.9 102290 37
2010-04-12 12:11 51°22.185 3°7.834 8 26 7.9 102280 37
2010-04-12 12:12 51°22.111 3°7.6 7.4 26 7.9 102290 37
2010-04-12 12:13 51°22.053 3°7.299 10.6 19 7.9 102280 39
2010-04-12 12:14 51°22.005 3°7.006 8.8 24 7.9 102280 38
2010-04-12 12:15 51°21.958 3°6.763 9.3 27 7.9 102270 37
2010-04-12 12:16 51°21.897 3°6.523 6.7 18 7.9 102280 37
2010-04-12 12:17 51°21.834 3°6.28 7.8 22 7.9 102270 36
2010-04-12 12:18 51°21.774 3°6.033 7.9 26 7.9 102280 39
2010-04-12 12:19 51°21.71 3°5.786 8.3 29 7.9 102280 39
2010-04-12 12:20 51°21.646 3°5.542 8.2 27 7.9 102280 38
2010-04-12 12:21 51°21.582 3°5.296 6.5 25 7.9 102280 38
2010-04-12 12:22 51°21.509 3°5.054 6.8 32 7.9 102280 37
2010-04-12 12:23 51°21.435 3°4.816 9.2 26 7.9 102280 39
2010-04-12 12:24 51°21.367 3°4.573 8.8 23 8 102280 36
2010-04-12 12:25 51°21.292 3°4.339 5.7 44 7.9 102280 39
2010-04-12 12:26 51°21.178 3°4.149 6.6 32 7.9 102290 39
2010-04-12 12:27 51°21.086 3°3.921 8.2 25 7.9 102280 36
2010-04-12 12:28 51°21.008 3°3.682 7.9 34 7.9 102290 37
2010-04-12 12:29 51°20.946 3°3.429 8.9 25 7.9 102280 39
2010-04-12 12:30 51°20.887 3°3.179 6.4 32 7.9 102280 37
2010-04-12 12:31 51°20.768 3°2.981 6.4 41 7.9 102290 39
2010-04-12 12:32 51°20.664 3°2.762 6.4 25 7.9 102290 39
2010-04-12 12:33 51°20.647 3°2.491 8.7 14 7.9 102260 38
2010-04-12 12:34 51°20.65 3°2.209 10.1 17 7.9 102260 37
2010-04-12 12:35 51°20.651 3°1.929 9.5 16 7.9 102270 36
2010-04-12 12:36 51°20.648 3°1.654 8.9 17 7.9 102270 38
2010-04-12 12:37 51°20.643 3°1.384 9 21 7.9 102260 37
2010-04-12 12:38 51°20.613 3°1.121 7.7 23 7.9 102270 38
2010-04-12 12:39 51°20.558 3°0.866 7.7 25 7.9 102290 37
2010-04-12 12:40 51°20.506 3°0.61 7 21 7.9 102280 39
2010-04-12 12:41 51°20.456 3°0.351 8.2 20 7.9 102270 39
2010-04-12 12:42 51°20.4 3°0.092 6.7 28 7.9 102270 39
2010-04-12 12:43 51°20.33 2°59.844 7.3 26 7.9 102280 39
2010-04-12 12:44 51°20.26 2°59.596 6.8 27 7.9 102280 37
2010-04-12 12:45 51°20.19 2°59.348 8.8 28 7.9 102270 37
2010-04-12 12:46 51°20.123 2°59.096 6.4 26 7.9 102270 38
2010-04-12 12:47 51°20.054 2°58.845 8.4 25 7.9 102270 39
2010-04-12 12:48 51°19.989 2°58.592 6.2 26 7.9 102280 38
2010-04-12 12:49 51°19.922 2°58.34 6.3 23 7.9 102280 39
2010-04-12 12:50 51°19.854 2°58.086 8 25 7.9 102280 37
2010-04-12 12:51 51°19.785 2°57.829 6.9 31 7.9 102270 36
2010-04-12 12:52 51°19.717 2°57.575 7.8 30 7.9 102270 38
2010-04-12 12:53 51°19.648 2°57.324 7.9 30 7.9 102280 38
2010-04-12 12:54 51°19.579 2°57.072 7.6 25 7.9 102280 39
2010-04-12 12:55 51°19.512 2°56.818 7 25 7.9 102270 38
2010-04-12 12:56 51°19.445 2°56.56 5.4 30 7.9 102270 38
2010-04-12 12:57 51°19.375 2°56.305 7.7 27 8 102270 38
2010-04-12 12:58 51°19.307 2°56.049 6.3 29 7.9 102270 37
2010-04-12 12:59 51°19.237 2°55.796 7.2 26 8 102280 36
2010-04-12 13:00 51°19.166 2°55.537 7.6 28 7.9 102280 39
2010-04-12 13:01 51°19.096 2°55.279 7.3 26 7.9 102260 39
2010-04-12 13:02 51°19.027 2°55.019 7.6 24 7.9 102270 39
2010-04-12 13:03 51°18.958 2°54.762 8 27 7.9 102260 37
2010-04-12 13:04 51°18.886 2°54.506 7.3 25 8 102270 39
2010-04-12 13:05 51°18.816 2°54.248 5.6 29 7.9 102260 38
2010-04-12 13:06 51°18.745 2°53.991 7.9 29 7.9 102270 36
2010-04-12 13:07 51°18.676 2°53.732 6.8 29 7.9 102270 38
2010-04-12 13:08 51°18.606 2°53.474 8.2 29 7.9 102270 37
2010-04-12 13:09 51°18.534 2°53.217 8.6 31 7.9 102270 37
2010-04-12 13:10 51°18.452 2°52.969 6.5 29 7.9 102260 37
2010-04-12 13:11 51°18.362 2°52.729 5.7 30 8 102260 38
2010-04-12 13:12 51°18.266 2°52.496 5.6 38 7.9 102270 38
2010-04-12 13:13 51°18.122 2°52.344 4.5 27 8 102270 37
2010-04-12 13:15 51°17.705 2°52.182 3.6 80 8.2 102280 39
2010-04-12 13:16 51°17.532 2°52.123 7.5 77 8.3 102280 38
2010-04-12 13:17 51°17.356 2°52.113 7.3 75 8.2 102280 37
2010-04-12 13:18 51°17.182 2°52.157 8.2 290 8.2 102270 40
2010-04-12 13:19 51°17.019 2°52.278 4.8 286 8.2 102280 39
2010-04-12 13:20 51°16.858 2°52.409 5.8 280 8.2 102270 37
2010-04-12 13:21 51°16.694 2°52.535 8.6 274 8.2 102270 39
2010-04-12 13:22 51°16.53 2°52.664 7.7 287 8.2 102270 37
2010-04-12 13:23 51°16.378 2°52.826 5.2 280 8.2 102240 37
2010-04-12 13:24 51°16.224 2°52.99 7.8 283 8.3 102260 36
2010-04-12 13:25 51°16.075 2°53.163 6.7 283 8.3 102230 38
2010-04-12 13:26 51°15.928 2°53.343 7.4 285 8.3 102240 39
2010-04-12 13:27 51°15.774 2°53.504 9 285 8.3 102230 39
2010-04-12 13:28 51°15.622 2°53.67 7.4 277 8.2 102270 36
2010-04-12 13:29 51°15.471 2°53.839 7.6 281 8.2 102260 37
2010-04-12 13:30 51°15.323 2°54.01 14.3 283 8.3 102260 38
2010-04-12 13:31 51°15.184 2°54.194 6.7 282 8.3 102240 38
2010-04-12 13:32 51°15.074 2°54.346 8.6 286 8.2 102240 38
2010-04-12 13:33 51°14.973 2°54.478 7.3 279 8.2 102230 36
2010-04-12 13:34 51°14.813 2°54.612 8.3 285 8.3 102230 39
2010-04-12 13:35 51°14.641 2°54.829 10.4 279 8.3 102230 39
2010-04-12 13:36 51°14.468 2°55.057 8.3 279 8.3 102230 37
2010-04-12 13:37 51°14.308 2°55.232 7 286 8.4 102220 38
2010-04-12 13:38 51°14.205 2°55.353 7.7 80 8.4 102240 38
2010-04-12 13:39 51°14.114 2°55.424 7.9 77 8.4 102230 36
2010-04-12 13:40 51°14.036 2°55.502 4.3 278 8.4 102240 38
2010-04-12 13:41 51°14.01 2°55.559 5.6 285 8.5 102240 39
2010-04-12 13:42 51°14.006 2°55.56 7.7 79 8.6 102230 37
2010-04-12 13:43 51°14 2°55.559 5 280 8.7 102220 36
2010-04-12 13:44 51°13.956 2°55.581 6.3 78 8.7 102240 37
2010-04-12 13:45 51°13.86 2°55.622 5 73 8.7 102230 38
2010-04-12 13:46 51°13.767 2°55.692 8.4 288 8.7 102230 36
2010-04-12 13:47 51°13.715 2°55.781 7.4 286 8.7 102230 37
2010-04-12 13:48 51°13.679 2°55.877 6.7 285 8.8 102230 39
2010-04-12 13:49 51°13.665 2°55.948 8.3 286 9 102220 37
2010-04-12 13:50 51°13.661 2°55.96 2.8 284 9.1 102250 38